Location: Asheville, NC
(35.6000°N, 82.5500°W)
Time: 23:32:45
(UTC-04:00)

Vanguard 2 - Pass Details

Date: 12 December 2017
Orbit: 553 x 2939 km, 32.9° (Epoch: 17 June)

Event Time Altitude Azimuth Distance (km) Brightness Sun altitude
Rises 15:46:54 0° 238° (WSW) 4,682 13.3 14.2°
Reaches altitude 10° 15:50:48 10° 233° (SW) 3,294 13.7 13.6°
Maximum altitude 15:57:52 41° 166° (SSE) 1,270 9.1 12.5°
Drops below altitude 10° 16:02:32 10° 95° (E) 2,166 9.5 11.8°
Sets 16:04:37 0° 88° (E) 2,934 10.0 11.5°
